Retour au catalogue

LAPAN-TUBSAT

ActifScienceSSO
NORAD 29709·PAYLOAD·🇮🇩 Indonesia

Lancé Jan 10, 2007 depuis Satish Dhawan Space Centre

Loading…

Prochains Passages (prochaines 24 heures)

TLE

FraisSource: Space-Track

Époque: Sep 14, 2026, 14:37 UTC

1 29709U 07001A   26257.60939323 -.00000254  00000-0 -22439-4 0  9999
2 29709  98.1397 258.8807 0010780 254.2179 105.7847 14.86023679 64435

Suivez LAPAN-TUBSAT en temps réel avec AllMySat

Download on the App Store